[Date Prev][Date Next][Thread Prev][Thread Next] - [Date Index][Thread Index][Author Index]

2 Line ISS Keps 9-10



ISS
1 25544U 98067A   03253.13543557  .00013749  00000-0  15856-3 0  4779
2 25544  51.6318 312.4106 0005962 225.7920 237.0470 15.62243131274275


----
Via the sarex mailing list at AMSAT.ORG courtesy of AMSAT-NA.
To unsubscribe, send "unsubscribe sarex" to Majordomo@amsat.org



AMSAT Top AMSAT Home